Location: Dehesa de la Cepeda
(40.6574°N, 4.3013°W)
Time: 10:52:10
(UTC+00:00)

Vanguard 2 Rocket - Pass Details

Date: 25 October 2021
Orbit: 555 x 3324 km, 32.9° (Epoch: 09 December)

Event Time Altitude Azimuth Distance (km) Brightness Sun altitude
Rises 05:50:07 0° 242° (WSW) 6,642 10.8 -10.0°
Reaches altitude 10° 05:55:18 10° 237° (WSW) 5,243 10.3 -9.0°
Maximum altitude 06:08:20 47° 171° (S) 2,149 9.0 -6.6°
Drops below altitude 10° 06:15:54 10° 100° (E) 3,109 11.6 -5.2°
Sets 06:18:12 0° 93° (E) 3,804 12.5 -4.8°
